Location: Munkebjergskolens Observatorium
(55.3864°N, 10.3987°E)
Time: 05:33:49
(UTC+02:00)

CAS-6 - Pass Details

Date: 07 April 2023
Orbit: 610 x 632 km, 97.9° (Epoch: 31 May)

Event Time Altitude Azimuth Distance (km) Brightness Sun altitude
Exits shadow 22:10:22 22° 91° (E) 1,368 ? -16.3°
Maximum altitude 22:11:48 27° 60° (ENE) 1,222 ? -16.5°
Drops below altitude 10° 22:15:29 10° 3° (N) 2,023 ? -16.9°
Sets 22:17:56 0° 351° (N) 2,939 ? -17.1°
